DW8816 Weather Reports


time (UTC)temp
C
wind
direction
speed
KPH
gust
KPH
rain 1hr
cm
rain 24hr
cm
rain mn
cm
humidity
%
barometer
mb
20260509103003 18 80 4.8 16.1 0.00 0.00 0.00 56 1017.3
20260509102003 18 95 6.4 12.9 0.00 0.00 0.00 57 1017.4
20260509101004 17 78 8.0 17.7 0.00 0.00 0.00 56 1017.3
20260509100002 17 88 4.8 17.7 0.00 0.00 0.00 58 1017.3
20260509095003 17 99 6.4 17.7 0.00 0.00 0.00 59 1017.4
20260509093003 17 125 4.8 14.5 0.00 0.00 0.00 61 1017.5
20260509092004 16 118 8.0 17.7 0.00 0.00 0.00 63 1017.5
20260509091004 16 109 8.0 17.7 0.00 0.00 0.00 62 1017.6
20260509090004 16 90 8.0 17.7 0.00 0.00 0.00 65 1017.6
20260509083004 15 104 4.8 16.1 0.00 0.00 0.00 66 1017.7
20260509082003 15 81 4.8 12.9 0.00 0.00 0.00 69 1017.7
20260509075003 13 45 6.4 11.3 0.00 0.00 0.00 76 1017.7
20260509073003 12 52 4.8 12.9 0.00 0.00 0.00 80 1017.6
20260509072003 12 48 4.8 12.9 0.00 0.00 0.00 83 1017.6
20260509070003 11 33 4.8 9.7 0.00 0.00 0.00 85 1017.5
20260509065003 11 355 1.6 8.0 0.00 0.00 0.00 86 1017.5
20260509064004 10 355 1.6 4.8 0.00 0.00 0.00 87 1017.6
20260509063003 10 10 3.2 8.0 0.00 0.00 0.00 88 1017.6
20260509062003 10 18 3.2 6.4 0.00 0.00 0.00 89 1017.5
20260509061003 9 24 1.6 6.4 0.00 0.00 0.00 90 1017.5
20260509060004 8 26 1.6 4.8 0.00 0.00 0.00 91 1017.5
20260509055004 8 26 3.2 4.8 0.00 0.00 0.00 91 1017.6
20260509054003 8 24 3.2 6.4 0.00 0.00 0.00 91 1017.4
20260509053003 8 28 3.2 9.7 0.00 0.00 0.00 92 1017.4
20260509052004 7 24 3.2 6.4 0.00 0.00 0.00 92 1017.3
20260509051004 7 23 1.6 8.0 0.00 0.00 0.00 93 1017.3
20260509050005 7 19 1.6 6.4 0.00 0.00 0.00 92 1017.2
20260509045003 7 18 1.6 4.8 0.00 0.00 0.00 93 1017.3
20260509044004 7 16 1.6 6.4 0.00 0.00 0.00 92 1017.3
20260509043003 7 15 3.2 6.4 0.00 0.00 0.00 92 1017.3
20260509042003 7 14 3.2 8.0 0.00 0.00 0.00 92 1017.3
20260509041002 7 24 3.2 8.0 0.00 0.00 0.00 92 1017.3
20260509040003 7 31 3.2 6.4 0.00 0.00 0.00 91 1017.4
20260509035004 7 34 4.8 8.0 0.00 0.00 0.00 92 1017.3
20260509034004 7 38 3.2 9.7 0.00 0.00 0.00 91 1017.3
20260509033003 7 28 1.6 8.0 0.00 0.00 0.00 91 1017.3
20260509032003 7 30 1.6 6.4 0.00 0.00 0.00 91 1017.4
20260509031003 7 41 1.6 4.8 0.00 0.00 0.00 91 1017.4
20260509025003 7 44 0.0 4.8 0.00 0.00 0.00 90 1017.4
20260509024003 7 0 0.0 3.2 0.00 0.00 0.00 90 1017.4
20260509023003 7 44 1.6 3.2 0.00 0.00 0.00 90 1017.5
20260509022003 7 44 1.6 4.8 0.00 0.00 0.00 90 1017.4
20260509014003 8 99 1.6 4.8 0.00 0.00 0.00 88 1017.6
20260509012003 8 99 0.0 3.2 0.00 0.00 0.00 87 1017.7
20260509011003 8 99 0.0 3.2 0.00 0.00 0.00 87 1017.6
20260509010003 8 0 0.0 0.0 0.00 0.00 0.00 86 1017.6
20260509005003 8 0 0.0 3.2 0.00 0.00 0.00 86 1017.6
20260509004003 8 0 0.0 1.6 0.00 0.00 0.00 85 1017.6
20260509003003 9 0 0.0 3.2 0.00 0.00 0.00 84 1017.5
20260509002004 10 0 0.0 4.8 0.00 0.00 0.00 83 1017.6
20260509001003 10 0 0.0 3.2 0.00 0.00 0.00 83 1017.5
20260509000005 10 0 0.0 3.2 0.00 0.00 0.00 82 1017.6
20260508235005 10 0 0.0 0.0 0.00 0.00 0.00 80 1017.7
20260508234003 11 0 0.0 4.8 0.00 0.00 0.00 80 1017.7
20260508233003 11 0 0.0 3.2 0.00 0.00 0.00 80 1017.8
20260508232004 11 0 0.0 3.2 0.00 0.00 0.00 79 1017.7
20260508231003 11 0 0.0 4.8 0.00 0.00 0.00 78 1017.7
20260508230003 11 102 1.6 4.8 0.00 0.00 0.00 77 1017.7
20260508224004 11 120 3.2 9.7 0.00 0.00 0.00 75 1017.7
20260508223003 12 120 4.8 9.7 0.00 0.00 0.00 75 1017.5
20260508222003 12 130 6.4 19.3 0.00 0.00 0.00 74 1017.5
20260508220004 12 123 6.4 11.3 0.00 0.00 0.00 73 1017.4
20260508215003 12 120 4.8 19.3 0.00 0.00 0.00 72 1017.4
20260508214003 12 115 6.4 14.5 0.00 0.00 0.00 71 1017.4
20260508212003 12 121 4.8 12.9 0.00 0.00 0.00 69 1017.4
20260508211003 13 129 4.8 11.3 0.00 0.00 0.00 69 1017.3
20260508210003 13 125 6.4 14.5 0.00 0.00 0.00 68 1017.3
20260508204003 13 109 6.4 14.5 0.00 0.00 0.00 68 1017.2
20260508203004 13 121 4.8 22.5 0.00 0.00 0.00 68 1017.1
20260508202003 14 122 4.8 11.3 0.00 0.00 0.00 68 1017.0
20260508201004 14 118 4.8 14.5 0.00 0.00 0.00 68 1016.9
20260508200005 14 114 3.2 14.5 0.00 0.00 0.00 68 1016.7
20260508194003 15 112 1.6 9.7 0.00 0.00 0.00 66 1016.4
20260508191003 15 121 4.8 11.3 0.00 0.00 0.00 65 1016.2
20260508184003 16 119 4.8 11.3 0.00 0.00 0.00 64 1015.8
20260508183003 16 125 4.8 12.9 0.00 0.00 0.00 63 1015.8
20260508182004 16 114 4.8 9.7 0.00 0.00 0.00 62 1015.7
20260508181003 17 128 4.8 12.9 0.00 0.00 0.00 61 1015.7
20260508180004 17 130 4.8 14.5 0.00 0.00 0.00 61 1015.6
20260508175004 17 101 4.8 11.3 0.00 0.00 0.00 60 1015.6
20260508174003 17 130 3.2 14.5 0.00 0.00 0.00 60 1015.5
20260508173004 17 99 3.2 12.9 0.00 0.00 0.00 60 1015.4
20260508172004 17 132 3.2 8.0 0.00 0.00 0.00 61 1015.5
20260508171004 17 125 3.2 11.3 0.00 0.00 0.00 60 1015.4
20260508170003 17 95 4.8 11.3 0.00 0.00 0.00 60 1015.4
20260508165004 17 88 4.8 11.3 0.00 0.00 0.00 61 1015.4
20260508164003 17 91 4.8 14.5 0.00 0.00 0.00 61 1015.4
20260508163004 17 106 4.8 12.9 0.00 0.00 0.00 60 1015.3
20260508161003 17 134 1.6 9.7 0.00 0.00 0.00 61 1015.3
20260508160003 17 104 3.2 6.4 0.00 0.00 0.00 60 1015.3
20260508155003 17 56 3.2 6.4 0.00 0.00 0.00 61 1015.3
20260508153003 16 89 3.2 6.4 0.00 0.00 0.00 62 1015.5
20260508152003 16 79 0.0 4.8 0.00 0.00 0.00 62 1015.6
20260508151004 16 77 1.6 4.8 0.00 0.00 0.00 63 1015.5
20260508150003 16 73 4.8 11.3 0.00 0.00 0.00 62 1015.5
20260508145003 16 111 3.2 14.5 0.00 0.00 0.00 62 1015.5
20260508144003 16 102 4.8 11.3 0.00 0.00 0.00 62 1015.6
20260508143003 16 109 3.2 14.5 0.00 0.00 0.00 61 1015.7
20260508142004 16 120 3.2 11.3 0.00 0.00 0.00 62 1015.7
20260508141003 16 112 3.2 14.5 0.00 0.00 0.00 63 1015.7
20260508140004 16 98 1.6 11.3 0.00 0.00 0.00 63 1015.7
20260508134003 16 137 3.2 11.3 0.00 0.00 0.00 65 1015.8
20260508133003 16 125 3.2 9.7 0.00 0.00 0.00 66 1015.8
20260508132003 16 141 1.6 8.0 0.00 0.00 0.00 65 1015.8
20260508131003 16 237 1.6 8.0 0.00 0.00 0.00 66 1015.9
20260508130004 16 145 1.6 11.3 0.00 0.00 0.00 66 1015.9
20260508125003 16 194 1.6 6.4 0.00 0.00 0.00 66 1016.0
20260508124003 16 210 1.6 8.0 0.00 0.00 0.00 68 1016.0
20260508123003 15 153 1.6 8.0 0.00 0.00 0.00 69 1015.9
20260508120003 16 235 1.6 6.4 0.00 0.00 0.00 64 1016.0
20260508113004 16 185 3.2 6.4 0.00 0.00 0.00 64 1015.9
20260508112003 15 126 4.8 17.7 0.00 0.00 0.00 65 1015.9
20260508111004 15 118 3.2 12.9 0.00 0.00 0.00 64 1016.0
20260508110004 15 121 3.2 14.5 0.00 0.00 0.00 64 1016.0
20260508105003 16 161 3.2 11.3 0.00 0.00 0.00 63 1015.9
20260508104003 15 127 3.2 9.7 0.00 0.00 0.00 63 1015.9